Home > Weather > Bocholt > Past weeks

Flag for Germany Weather for the Past 2 Weeks in Bocholt, North Rhine-Westphalia, Germany

Now
36 °F

Passing clouds.


Feels Like: 33 °F
Forecast: 32 / 43 °F
Wind: 3 mph from Southwest

Location: Niederrhein

Current Time: Feb 12, 2016 at 2:46:44 AM

Latest Report: Feb 11, 2016 at 11:50 PM


Visibility: 4 mi

Pressure: 29.65 "Hg

Humidity: 93%

Dew point: 34 °F

Location of BocholtLocation

Historic Weather in Bocholt — Graph

°F

Bocholt Temperature Yesterday

Maximum temperature yesterday: 45 °F (at 12:20 PM)
Minimum temperature yesterday: 36 °F (at 6:50 AM)
Average temperature yesterday: 40 °F

High & Low Weather Summary for the Past Weeks

 TemperatureHumidityPressure
High54 °F (Jan 31, 10:50 PM)100% (Feb 5, 9:50 AM)30.30 "Hg (Feb 5, 9:50 AM)
Low36 °F (Feb 4, 8:50 PM)57% (Jan 28, 3:20 PM)28.82 "Hg (Feb 9, 3:20 PM)
Average45 °F82%29.80 "Hg
* Reported Jan 27 11:20 PM — Feb 11 11:50 PM, Bocholt, Weather by CustomWeather, © 2016

Note: Actual official high and low records may vary slightly from our data, if they occured in-between our weather recording intervals... More about our weather records

Advertising

Bocholt Weather History for the Previous 24 Hours

 ConditionsComfort  
Time TempWeatherWind HumidityBarometerVisibility
11:50 PM
Thu, Feb 11
36 °FPassing clouds.3 mph93%29.65 "Hg4 mi
10:50 PM37 °FClear.5 mph87%29.68 "Hg10 mi
10:20 PM36 °FClear.5 mph93%29.68 "Hg10 mi
9:50 PM37 °FClear.5 mph87%29.68 "Hg10 mi
9:20 PM37 °FClear.5 mph87%29.68 "Hg10 mi
8:50 PM37 °FClear.5 mph81%29.68 "Hg10 mi
8:20 PM37 °FClear.5 mph87%29.68 "Hg10 mi
7:50 PM39 °FClear.5 mph81%29.68 "Hg10 mi
7:20 PM39 °FClear.6 mph81%29.68 "Hg10 mi
6:50 PM41 °FClear.5 mph76%29.68 "Hg10 mi
6:20 PM41 °FPassing clouds.5 mph81%29.65 "HgN/A
5:50 PM43 °FPassing clouds.5 mph71%29.65 "HgN/A
5:20 PM43 °FSunny.5 mph76%29.65 "Hg10 mi
4:50 PM45 °FPassing clouds.6 mph71%29.65 "HgN/A
4:20 PM45 °FPassing clouds.8 mph71%29.65 "HgN/A
3:50 PM45 °FSunny.8 mph71%29.65 "Hg10 mi
3:20 PM45 °FSunny.12 mph71%29.65 "Hg10 mi
2:50 PM45 °FPassing clouds.13 mph71%29.65 "HgN/A
2:20 PM45 °FPassing clouds.14 mph71%29.65 "HgN/A
1:50 PM45 °FScattered clouds.12 mph71%29.65 "HgN/A
1:20 PM45 °FScattered clouds.14 mph71%29.65 "HgN/A
12:50 PM45 °FScattered clouds.15 mph71%29.68 "HgN/A
12:20 PM45 °FSunny.10 mph76%29.68 "Hg10 mi
11:50 AM43 °FPassing clouds.10 mph76%29.68 "HgN/A
11:20 AM43 °FSunny.10 mph76%29.68 "Hg10 mi
10:50 AM41 °FSunny.10 mph81%29.65 "Hg10 mi
10:20 AM39 °FPassing clouds.8 mph87%29.65 "HgN/A
9:50 AM37 °FSunny.9 mph93%29.65 "Hg10 mi
9:20 AM37 °FPassing clouds.9 mph87%29.65 "Hg4 mi
8:50 AM36 °FPassing clouds.8 mph93%29.65 "Hg4 mi
8:20 AM36 °FPassing clouds.7 mph93%29.65 "Hg4 mi
7:50 AM36 °FPassing clouds.8 mph93%29.62 "Hg4 mi
7:20 AM36 °FPassing clouds.8 mph93%29.62 "Hg4 mi
6:50 AM36 °FPassing clouds.8 mph93%29.62 "Hg4 mi
6:20 AM37 °FPassing clouds.8 mph93%29.62 "Hg4 mi
5:50 AM37 °FPassing clouds.9 mph93%29.62 "Hg4 mi
5:20 AM39 °FPassing clouds.9 mph87%29.62 "Hg4 mi
4:50 AM39 °FPassing clouds.9 mph87%29.59 "Hg5 mi
Weather by CustomWeather, © 2016

See weather overviewHow to use our weather pages